Volver al catálogo

TIANFU DONGPO 07

ActivoComunicacionesPO
NORAD 53444·PAYLOAD·🇨🇳 China
Este nombre de satélite aún no ha sido confirmado por fuentes oficiales.

Lanzado Aug 10, 2022 desde Taiyuan Satellite Launch Center

Loading…

Próximos Pases (próximas 24 horas)

TLE

ActualizadoSource: Space-Track

Época: Sep 14, 2026, 16:05 UTC

1 53444U 22098A   26257.67063272  .00376563  62738-4  72101-3 0  9990
2 53444  97.5612  37.5227 0004571 275.0172  85.0584 16.00550290228908

Sigue TIANFU DONGPO 07 en tiempo real con AllMySat

Download on the App Store